This is the latest recevied weather packets stored in our database for station/object KF4ERV-4. If no packets are shown the sender has not sent any weather packets the latest 10 day(s).
| Time | Temp. | Humidity | Pressure | Rain* | Wind** | Luminosity | Snow |
|---|---|---|---|---|---|---|---|
| 1787516086 | 27.78° C | 64% | 1016.8 hPa | 0 mm | - | - | - |
| 1787515771 | 27.78° C | 65% | 1016.5 hPa | 0 mm | - | - | - |
| 1787515473 | 27.78° C | 65% | 1016.7 hPa | 0 mm | - | - | - |
| 1787515176 | 28.33° C | 63% | 1016.6 hPa | 0 mm | - | - | - |
| 1787514926 | 28.33° C | 62% | 1016.7 hPa | 0 mm | - | - | - |
| 1787514634 | 28.33° C | 62% | 1017 hPa | 0 mm | - | - | - |
| 1787514344 | 28.89° C | 62% | 1016.9 hPa | 0 mm | - | - | - |
| 1787514274 | 28.89° C | 62% | 1016.9 hPa | 0 mm | - | - | - |
| 1787514054 | 28.89° C | 63% | 1017 hPa | 0 mm | - | - | - |
| 1787513965 | 28.89° C | 63% | 1017 hPa | 0 mm | - | - | - |
| 1787513769 | 28.89° C | 63% | 1016.8 hPa | 0 mm | - | - | - |
| 1787513477 | 28.33° C | 63% | 1016.9 hPa | 0 mm | - | - | - |
| 1787513371 | 28.33° C | 63% | 1016.9 hPa | 0 mm | - | - | - |
| 1787513076 | 28.89° C | 61% | 1017 hPa | 0 mm | - | - | - |
| 1787512899 | 28.33° C | 61% | 1016.9 hPa | 0 mm | - | - | - |
| 1787512766 | 28.33° C | 61% | 1016.9 hPa | 0 mm | - | - | - |
| 1787512605 | 28.33° C | 62% | 1016.9 hPa | 0 mm | - | - | - |
| 1787512319 | 28.89° C | 62% | 1017 hPa | 0 mm | - | - | - |
| 1787511876 | 28.89° C | 63% | 1017 hPa | 0 mm | - | - | - |
| 1787511568 | 28.33° C | 61% | 1017 hPa | 0 mm | - | - | - |
| 1787511446 | 28.33° C | 63% | 1017 hPa | 0 mm | - | - | - |
| 1787511155 | 28.33° C | 60% | 1016.9 hPa | 0 mm | - | - | - |
| 1787510976 | 28.33° C | 60% | 1016.9 hPa | 0 mm | - | - | - |
| 1787510581 | 28.89° C | 61% | 1017 hPa | 0 mm | - | - | - |
| 1787510369 | 28.89° C | 61% | 1017 hPa | 0 mm | - | - | - |
* Rain latest hour (hover to see other rain measurements)
** Current wind speed in m/s (hover to see current wind gust speed)